Wetbulb
44.38 44.66 45.37 44.78 45.06 45.41 46.18 46.72 47.99 49.32 49.43 50.30 52.49 52.74 53.88 52.77 52.31 52.13 51.68 51.27 50.89 49.58
44.02 44.43 44.62 44.96 45.77 45.41 46.17 47.15 47.58 49.04 49.67 50.50 51.45 52.31 52.56 51.99 51.66 52.55 51.30 51.78 50.42 49.89
43.35 44.56 44.96 45.68 45.37 45.49 45.48 45.94 47.30 48.28 49.61 50.60 51.95 51.47 52.49 51.72 51.83 51.62 51.76 52.48 50.74 50.78
43.06 44.08 44.75 44.96 45.24 45.29 45.70 46.01 47.22 48.20 49.10 50.15 50.92 50.81 51.78 51.86 51.45 51.08 50.54 52.10 52.25 50.62
43.02 43.42 43.62 44.17 45.03 45.39 45.21 46.42 47.23 47.70 48.33 49.87 51.44 50.83 51.28 49.25 49.53 50.76 50.60 51.39 50.97 49.42
42.23 42.47 42.94 43.86 44.61 45.05 45.23 45.97 47.00 47.43 47.33 49.23 51.18 50.97 51.52 50.35 49.53 50.76 51.07 51.31 50.64 47.47
41.55 42.33 43.09 43.79 44.27 44.66 44.99 45.40 46.36 46.88 47.21 48.70 50.36 51.23 50.54 50.26 49.58 49.37 50.23 51.04 50.15 48.95
42.10 42.59 43.00 43.24 43.80 44.25 44.35 45.18 46.39 46.66 46.80 47.88 48.54 50.10 50.70 50.04 49.30 48.68 48.29 48.70 50.62 49.64
42.26 42.03 42.22 42.84 43.28 43.56 43.79 44.35 45.58 46.01 46.31 46.40 47.74 45.03 44.10 47.85 48.86 49.20 48.71 47.54 47.15 45.70
41.87 41.35 41.58 42.21 42.61 42.61 42.83 43.82 44.70 45.77 46.44 45.92 46.30 43.01 43.09 41.42 49.30 49.88 49.20 47.45 46.36 43.62
40.65 39.94 40.46 40.46 41.25 41.66 42.42 43.04 44.03 45.32 46.29 45.94 46.19 42.73 41.76 40.30 48.52 49.68 49.99 48.81 46.38 44.15
40.40 39.43 39.41 39.74 40.06 41.05 41.77 42.57 43.73 45.11 45.87 45.48 45.23 40.07 39.55 42.02 46.04 46.86 48.17 48.15 46.36 45.05
39.49 39.97 39.72 39.39 39.70 39.97 41.40 41.20 41.49 42.78 44.80 40.62 43.33 40.60 39.85 41.97 43.82 44.27 43.89 45.17 45.34 35.66
38.79 38.93 40.28 40.10 38.87 39.25 38.21 37.58 37.23 37.60 38.12 38.99 39.65 42.97 41.51 41.01 42.15 42.42 36.87 36.04 36.16 37.13
MSLP
1016.42 1016.97 1017.45 1017.84 1018.08 1018.40 1018.60 1018.75 1018.92 1018.91 1019.08 1019.05 1019.05 1019.04 1018.95 1019.32 1019.57 1019.37 1019.58 1019.69 1019.85 1020.21
1016.19 1016.77 1017.15 1017.58 1017.91 1018.28 1018.58 1018.73 1018.89 1018.97 1019.25 1019.11 1019.19 1019.15 1019.13 1019.44 1019.72 1019.73 1019.88 1020.03 1020.45 1020.74
1016.11 1016.63 1017.03 1017.42 1017.86 1018.24 1018.58 1018.85 1019.02 1019.13 1019.15 1019.25 1019.20 1019.33 1019.28 1019.65 1019.70 1019.93 1020.12 1020.23 1020.63 1021.03
1016.12 1016.67 1017.09 1017.43 1017.79 1018.14 1018.54 1018.73 1018.99 1019.08 1019.21 1019.30 1019.43 1019.55 1019.49 1019.81 1019.95 1020.07 1020.24 1020.46 1020.85 1021.34
1015.87 1016.50 1017.05 1017.41 1017.69 1018.00 1018.43 1018.66 1018.93 1019.13 1019.25 1019.39 1019.44 1019.63 1019.66 1019.99 1020.10 1020.15 1020.40 1020.64 1021.05 1021.61
1015.65 1016.34 1016.93 1017.29 1017.60 1017.96 1018.30 1018.57 1018.87 1019.10 1019.27 1019.44 1019.66 1019.68 1019.81 1020.05 1020.21 1020.15 1020.45 1020.75 1021.09 1021.74
1015.53 1016.04 1016.58 1017.07 1017.47 1017.85 1018.20 1018.47 1018.80 1018.94 1019.27 1019.39 1019.71 1019.76 1020.02 1020.11 1020.29 1020.40 1020.56 1020.79 1021.21 1021.61
1015.27 1015.80 1016.35 1016.84 1017.35 1017.71 1018.01 1018.48 1018.74 1018.89 1019.31 1019.49 1019.71 1019.88 1020.11 1020.27 1020.47 1020.61 1020.83 1021.03 1021.33 1021.73
1014.98 1015.54 1016.19 1016.75 1017.19 1017.67 1017.97 1018.31 1018.65 1018.90 1019.30 1019.59 1019.77 1019.97 1020.13 1020.33 1020.60 1020.66 1020.84 1021.27 1021.66 1022.21
1014.73 1015.45 1016.00 1016.57 1017.12 1017.56 1018.02 1018.25 1018.54 1018.86 1019.15 1019.47 1019.73 1020.00 1020.29 1020.51 1020.65 1020.68 1020.85 1021.15 1021.69 1022.25
1014.42 1015.27 1015.89 1016.48 1016.99 1017.42 1017.84 1018.18 1018.42 1018.79 1019.13 1019.40 1019.70 1019.94 1020.36 1020.52 1020.70 1020.77 1020.78 1020.97 1021.44 1021.98
1014.15 1014.95 1015.66 1016.26 1016.87 1017.25 1017.69 1018.03 1018.25 1018.60 1018.97 1019.36 1019.74 1019.92 1020.36 1020.57 1020.77 1020.88 1020.90 1021.09 1021.47 1021.97
1013.74 1014.58 1015.33 1016.01 1016.63 1016.99 1017.42 1017.88 1018.31 1018.71 1018.93 1019.33 1019.71 1019.91 1020.37 1020.68 1020.82 1020.94 1021.05 1021.13 1021.52 1021.91
1013.54 1014.31 1014.95 1015.76 1016.40 1016.96 1017.57 1018.10 1018.77 1019.17 1019.48 1019.64 1019.92 1020.17 1020.43 1020.81 1020.83 1020.83 1021.19 1021.50 1021.57 1021.67
Wind_Speed
7 5 4 5 4 4 4 4 4 2 2 2 2 2 3 3 3 4 4 6 6 6
7 6 5 6 5 3 4 4 3 2 3 2 1 3 2 3 4 4 4 5 6 7
7 6 6 6 6 6 5 4 3 3 2 0 2 2 4 3 3 4 3 3 6 5
7 6 6 6 6 6 6 6 5 4 3 3 2 1 3 4 5 6 5 4 6 7
7 7 7 6 6 6 6 5 5 4 3 3 2 4 3 3 3 7 5 5 7 6
8 7 7 7 7 6 6 6 5 4 3 3 4 3 4 4 4 5 6 6 6 6
8 7 7 7 7 7 6 6 6 5 4 3 5 3 4 5 4 5 5 4 6 6
7 7 7 7 7 6 6 6 5 5 4 4 4 3 5 5 5 5 5 4 5 5
8 8 7 7 7 7 6 6 6 5 5 4 2 4 3 4 4 5 6 5 4 5
9 8 8 7 7 7 6 6 6 5 5 5 4 7 5 4 3 4 5 6 5 4
9 8 8 8 7 6 6 6 5 5 5 4 4 7 4 3 3 3 4 6 6 6
10 9 8 8 7 5 5 5 5 5 6 5 4 8 4 2 2 3 4 4 5 5
9 10 9 8 7 5 5 5 5 4 3 4 4 7 6 3 2 3 2 3 4 6
8 9 9 8 4 6 5 6 5 5 3 3 1 3 5 3 3 3 2 2 2 3
Wind_Direction
150 148 162 170 162 161 160 154 145 142 106 310 34 37 43 58 64 66 53 67 87 95
149 157 152 155 133 135 118 125 152 148 158 287 103 38 63 72 89 87 65 83 92 114
153 154 142 135 144 145 140 137 160 173 157 85 106 61 96 96 106 112 88 97 100 92
151 154 143 147 156 153 147 161 170 171 163 153 159 102 97 103 126 126 122 124 115 102
146 153 153 159 156 152 156 156 164 160 171 149 181 139 111 116 111 134 132 128 112 121
155 155 163 166 151 150 159 157 156 160 177 169 160 172 149 127 128 136 143 139 131 139
158 160 164 162 152 158 161 159 169 172 178 158 157 193 138 141 136 125 135 112 134 138
157 155 160 153 153 158 162 169 171 159 167 174 158 179 163 147 148 139 134 120 131 147
154 155 156 153 153 157 163 169 163 164 176 180 174 152 131 145 167 156 149 155 148 133
157 155 154 151 154 159 169 166 170 179 176 179 181 164 170 185 196 185 165 161 155 152
151 152 152 153 159 161 165 170 168 179 180 173 186 163 163 182 224 213 202 173 172 170
153 153 153 157 159 159 151 166 165 170 173 170 161 140 165 171 220 231 227 178 172 170
147 151 156 157 162 154 149 150 152 141 150 142 141 144 160 182 188 213 215 181 182 195
144 149 151 146 137 136 127 123 121 120 103 121 113 148 157 186 219 190 175 193 218 207